Regional Weather Roundup
Issued by NWS

Home | Current Version | Previous Version | Text Only | Print | Product List | Glossary Off
Versions: 1 2 3 4 5 6 7 8 9 10 11 12 13 14 15 16 17 18 19 20 21 22 23 24 25 26 27

000
ASUS45 KBOU 032107
RWRCO

WEATHER ROUNDUP FOR COLORADO
NATIONAL WEATHER SERVICE DENVER/BOULDER CO
200 PM MST SAT DEC 03 2016

NOTE: "FAIR" INDICATES FEW OR NO CLOUDS BELOW 12000 FEET WITH NO
SIGNIFICANT WEATHER AND/OR OBSTRUCTIONS TO VISIBILITY.

COZ001>005-013-030-031-032200-
...NORTHWEST COLORADO...

CITY           SKY/WX    TMP DP  RH WIND       PRES   REMARKS
CRAIG          CLOUDY    28  11  48 E5        30.12F WCI  23
HAYDEN         FAIR      25   9  50 NE5       30.11S WCI  19
MEEKER         CLOUDY    23  13  65 CALM      30.13F
MOUNT WERNER   NOT AVBL
STEAMBOAT SPGS CLOUDY    23  11  61 CALM      30.11S
WALDEN           N/A     23   7  50 SW18      30.02S WCI   9
$$

COZ006>008-011-032200-
...WEST CENTRAL VALLEYS...

CITY           SKY/WX    TMP DP  RH WIND       PRES   REMARKS
GRAND JUNCTION FAIR      39  19  44 CALM      30.15F
MONTROSE       FAIR      34  18  52 CALM      30.14F
EAGLE          PTSUNNY   32  16  51 CALM      30.12F
RIFLE          CLOUDY    32  17  54 W6        30.16S WCI  26
DELTA          FAIR      39  19  45 CALM      30.14F
NUCLA          FAIR      36  14  41 NW8       30.15F
$$

COZ017>023-064>068-032200-
...SOUTHWEST COLORADO...

CITY           SKY/WX    TMP DP  RH WIND       PRES   REMARKS
DURANGO        FAIR      37  24  59 SW15      30.02F
CORTEZ         FAIR      41  21  44 W14       30.06F
PAGOSA SPRINGS FAIR      37  21  53 SW7       30.02F
TELLURIDE      FAIR      29  12  49 W10       30.04  WCI  20
WOLF CREEK PAS FAIR      18  16  93 S9        30.04S WCI   6
$$

COZ009-010-012-014-032>034-037-058>063-032200-
...CENTRAL COLORADO...

CITY           SKY/WX    TMP DP  RH WIND       PRES   REMARKS
ASPEN          CLOUDY    26  14  60 NW6       30.07R WCI  19
BUENA VISTA    FAIR      35  11  36 CALM      29.95F
COPPER MTN     CLOUDY    14   5  67 MISG      29.96R
BERTHOUD PASS  CLOUDY     3  -9  55 NW35G43   29.88F WCI -23
COTTONWOOD PAS FAIR      32   3  29 SW20G25   29.95S WCI  20
GUNNISON       FAIR      29  17  61 CALM      30.04F
KREMMLING      PTSUNNY   32  18  55 CALM      30.08F
LEADVILLE      PTSUNNY   18   5  57 W15G22    29.97S WCI   4
MONARCH PASS   PTSUNNY   12   9  85 MISG      30.04R
SALIDA         FAIR      38  16  40 SW9G17    30.04S
SUNLIGHT       CLOUDY   N/A N/A N/A SW5       30.08R
WILKERSON PASS FAIR      21   9  58 N3        29.95F
$$

COZ069>075-032200-
...SAN LUIS VALLEY/SANGRE DE CRISTO MOUNTAINS...

CITY           SKY/WX    TMP DP  RH WIND       PRES   REMARKS
ALAMOSA        FAIR      28  20  71 SW7       30.01F WCI  21
LA VETA PASS   PTSUNNY   21  18  86 NE32G38   29.93S FOG     WCI   2
SAGUACHE       FAIR      34  18  51 S8        29.99F WCI  27
$$

COZ035-036-038>040-032200-
...NORTHERN COLORADO FRONT RANGE...

CITY           SKY/WX    TMP DP  RH WIND       PRES   REMARKS
DENVER INTL AP PTSUNNY   41  12  30 N5        29.94F
DMNS CITY PARK   N/A     41  13  31 NE6       29.93S
AURORA         PTSUNNY   40   7  25 NW6       29.93F
FRONT RANGE AP NOT AVBL
ERIE MUNI ARPT FAIR      39  20  46 N9        29.95F
BOULDER MUN AP FAIR      41  19  42 NE8       29.94F
CENTENNIAL     FAIR      40   8  26 N3        29.92F
BROOMFIELD     NOT AVBL
FORT COLLINS   FAIR      37  18  44 CALM      29.95F
LONGMONT       FAIR      41  21  44 NE3       29.96F
$$

COZ041-046-047-076>085-087-088-032200-
...PIKES PEAK/PALMER DIVIDE AND SOUTHERN FOOTHILLS...

CITY           SKY/WX    TMP DP  RH WIND       PRES   REMARKS
COLO. SPRINGS  PTSUNNY   41  18  39 SW6       29.93S
A. F. ACADEMY  FAIR      40  11  29 N10       29.91S
SCHRIEVER AFB  NOT AVBL
ELLICOTT       FAIR     N/A N/A N/A NE10G17   29.91S
FALCON         FAIR      39   5  23 N12       29.93S
FORT CARSON    FAIR      41  17  38 E2        29.91F
LIMON          FAIR      43  12  28 N12       29.93S
MONUMENT HILL  FAIR      36   5  27 N7        29.94S
TRINIDAD       FAIR      48  19  31 N6        29.89F
$$

COZ042>045-048>051-090-091-032200-
...NORTHEAST COLORADO...

CITY           SKY/WX    TMP DP  RH WIND       PRES   REMARKS
GREELEY ARPT   FAIR      36  20  52 CALM      29.97F
AKRON          FAIR      41  18  39 N3        29.94F
BURLINGTON     FAIR      42  24  49 S10       29.96F
WRAY           NOT AVBL
STERLING       FAIR      41  23  48 SE8       29.94F
HOLYOKE        FAIR      46  19  34 SW3       29.96F
FORT MORGAN    PTSUNNY   38  20  46 W8        29.97R
$$

COZ086-089-092>099-032200-
...SOUTHEAST COLORADO...

CITY           SKY/WX    TMP DP  RH WIND       PRES   REMARKS
PUEBLO         FAIR      44  20  38 CALM      29.92F
LA JUNTA       FAIR      45  21  38 CALM      29.92F
LAMAR          FAIR      44  29  55 SE7       29.93F
SPRINGFIELD      N/A     40  31  70 S15G22    29.92F
$$




USA.gov is the U.S. government's official web portal to all federal, state and local government web resources and services.